When you browse on this site, cookies collect data to enhance your experience and personalize the content and advertising you see.
Visit our Privacy Policy to learn more. By continuing to use the site, you agree to this use of cookies and data.
  • în România
  • Lista ţărilor
  • Pe 7 zile
  • Temperatura apei
  • Hartă satelitară
  • Meteo pe hartă
  • Widget-uri
  • user-avatar
    Intrare

    Meteo pe oră la Resht

    Astăzi, 19 Noiembrie, Luni

    Timp Temperatura Precipitaţii Vânt Presiune Umiditate
    00:00 +15°C° 0.1 mm 1 m/s 766 mmHg 95%
    01:00 +15°C° 0.1 mm 1 m/s 766 mmHg 95%
    02:00 +15°C° 0.1 mm 2 m/s 766 mmHg 95%
    03:00 +15°C° 0.1 mm 2 m/s 766 mmHg 95%
    04:00 +15°C° 0.2 mm 2 m/s 766 mmHg 95%
    05:00 +15°C° 0.2 mm 2 m/s 766 mmHg 95%
    06:00 +15°C° 0.2 mm 2 m/s 767 mmHg 95%
    07:00 +15°C° 0.3 mm 2 m/s 767 mmHg 92%
    08:00 +16°C° 0.3 mm 2 m/s 767 mmHg 88%
    09:00 +16°C° 0.3 mm 2 m/s 767 mmHg 85%
    10:00 +17°C° 0.3 mm 2 m/s 767 mmHg 83%
    11:00 +17°C° 0.3 mm 2 m/s 767 mmHg 82%
    12:00 +18°C° 0.3 mm 3 m/s 767 mmHg 80%
    13:00 +17°C° 0.3 mm 3 m/s 767 mmHg 82%
    14:00 +17°C° 0.3 mm 3 m/s 767 mmHg 84%
    15:00 +17°C° 0.3 mm 3 m/s 767 mmHg 86%
    16:00 +16°C° 0.2 mm 3 m/s 767 mmHg 89%
    17:00 +16°C° 0.2 mm 3 m/s 767 mmHg 92%
    18:00 +16°C° 0.2 mm 3 m/s 767 mmHg 95%
    19:00 +14°C° 0.1 mm 3 m/s 767 mmHg 95%
    20:00 +15°C° 0.1 mm 2 m/s 768 mmHg 95%
    21:00 +15°C° 0.1 mm 2 m/s 768 mmHg 95%
    22:00 +15°C° 0 mm 2 m/s 768 mmHg 94%
    23:00 +15°C° 0 mm 2 m/s 768 mmHg 93%

    Mâine, 20 Noiembrie, Marţi

    Timp Temperatura Precipitaţii Vânt Presiune Umiditate
    00:00 +15°C° 0 mm 2 m/s 768 mmHg 92%
    01:00 +15°C° 0 mm 2 m/s 767 mmHg 91%
    02:00 +15°C° 0 mm 2 m/s 767 mmHg 91%
    03:00 +14°C° 0 mm 2 m/s 767 mmHg 90%
    04:00 +14°C° 0 mm 2 m/s 767 mmHg 89%
    05:00 +14°C° 0 mm 2 m/s 767 mmHg 87%
    06:00 +14°C° 0 mm 2 m/s 767 mmHg 86%
    07:00 +15°C° 0 mm 2 m/s 767 mmHg 78%
    08:00 +17°C° 0 mm 2 m/s 767 mmHg 70%
    09:00 +19°C° 0 mm 2 m/s 767 mmHg 62%
    10:00 +20°C° 0 mm 2 m/s 766 mmHg 57%
    11:00 +21°C° 0 mm 2 m/s 765 mmHg 53%
    12:00 +22°C° 0 mm 3 m/s 764 mmHg 49%
    13:00 +22°C° 0 mm 3 m/s 764 mmHg 51%
    14:00 +22°C° 0 mm 3 m/s 763 mmHg 52%
    15:00 +21°C° 0 mm 3 m/s 763 mmHg 54%
    16:00 +20°C° 0 mm 3 m/s 763 mmHg 57%
    17:00 +19°C° 0 mm 3 m/s 763 mmHg 60%
    18:00 +18°C° 0 mm 3 m/s 763 mmHg 64%
    19:00 +18°C° 0 mm 3 m/s 763 mmHg 60%
    20:00 +18°C° 0 mm 3 m/s 763 mmHg 57%
    21:00 +18°C° 0 mm 2 m/s 762 mmHg 54%
    22:00 +17°C° 0 mm 2 m/s 762 mmHg 53%
    23:00 +17°C° 0 mm 2 m/s 762 mmHg 52%

    Poimâine, 21 Noiembrie, Miercuri

    Timp Temperatura Precipitaţii Vânt Presiune Umiditate
    00:00 +17°C° 0 mm 2 m/s 762 mmHg 52%
    01:00 +18°C° 0 mm 1 m/s 762 mmHg 53%
    02:00 +18°C° 0 mm 1 m/s 762 mmHg 54%
    03:00 +18°C° 0 mm 1 m/s 762 mmHg 56%
    04:00 +18°C° 0 mm 1 m/s 762 mmHg 58%
    05:00 +16°C° 0 mm 1 m/s 762 mmHg 60%
    06:00 +16°C° 0 mm 1 m/s 762 mmHg 61%
    07:00 +19°C° 0 mm 1 m/s 762 mmHg 56%
    08:00 +20°C° 0 mm 1 m/s 762 mmHg 51%
    09:00 +22°C° 0 mm 1 m/s 763 mmHg 45%
    10:00 +21°C° 0 mm 2 m/s 762 mmHg 47%
    11:00 +23°C° 0 mm 2 m/s 762 mmHg 48%
    12:00 +22°C° 0 mm 3 m/s 761 mmHg 50%
    13:00 +21°C° 0 mm 3 m/s 761 mmHg 55%
    14:00 +21°C° 0 mm 3 m/s 761 mmHg 60%
    15:00 +20°C° 0 mm 3 m/s 761 mmHg 64%
    16:00 +19°C° 0 mm 3 m/s 761 mmHg 72%
    17:00 +17°C° 0 mm 2 m/s 761 mmHg 79%
    18:00 +16°C° 0 mm 2 m/s 761 mmHg 86%
    19:00 +16°C° 0 mm 1 m/s 761 mmHg 85%
    20:00 +16°C° 0 mm 1 m/s 761 mmHg 84%
    21:00 +16°C° 0 mm 1 m/s 761 mmHg 82%
    22:00 +16°C° 0 mm 1 m/s 761 mmHg 77%
    23:00 +16°C° 0 mm 2 m/s 760 mmHg 71%

    22 Noiembrie, Joi

    Timp Temperatura Precipitaţii Vânt Presiune Umiditate
    00:00 +17°C° 0 mm 2 m/s 760 mmHg 65%
    01:00 +17°C° 0 mm 2 m/s 760 mmHg 61%
    02:00 +17°C° 0 mm 3 m/s 760 mmHg 57%
    03:00 +17°C° 0 mm 3 m/s 759 mmHg 53%
    04:00 +17°C° 0 mm 3 m/s 759 mmHg 52%
    05:00 +17°C° 0 mm 3 m/s 760 mmHg 51%
    06:00 +17°C° 0 mm 3 m/s 760 mmHg 50%
    07:00 +18°C° 0 mm 3 m/s 760 mmHg 48%
    08:00 +20°C° 0 mm 3 m/s 761 mmHg 46%
    09:00 +21°C° 0 mm 2 m/s 761 mmHg 44%
    10:00 +23°C° 0 mm 2 m/s 761 mmHg 44%
    11:00 +24°C° 0 mm 2 m/s 760 mmHg 43%
    12:00 +25°C° 0 mm 2 m/s 760 mmHg 43%
    13:00 +24°C° 0 mm 3 m/s 760 mmHg 48%
    14:00 +22°C° 0 mm 3 m/s 759 mmHg 54%
    15:00 +21°C° 0 mm 3 m/s 759 mmHg 59%
    16:00 +21°C° 0.1 mm 3 m/s 760 mmHg 64%
    17:00 +20°C° 0.1 mm 3 m/s 760 mmHg 68%
    18:00 +19°C° 0.1 mm 3 m/s 760 mmHg 73%
    19:00 +19°C° 0 mm 3 m/s 760 mmHg 68%
    20:00 +19°C° 0 mm 3 m/s 760 mmHg 63%
    21:00 +19°C° 0 mm 3 m/s 761 mmHg 59%
    22:00 +19°C° 0 mm 3 m/s 760 mmHg 57%
    23:00 +19°C° 0 mm 3 m/s 760 mmHg 56%

    23 Noiembrie, Vineri

    Timp Temperatura Precipitaţii Vânt Presiune Umiditate
    00:00 +19°C° 0 mm 3 m/s 760 mmHg 54%
    01:00 +19°C° 0 mm 3 m/s 760 mmHg 54%
    02:00 +19°C° 0 mm 3 m/s 760 mmHg 55%
    03:00 +18°C° 0 mm 3 m/s 760 mmHg 56%
    04:00 +18°C° 0 mm 3 m/s 760 mmHg 56%
    05:00 +18°C° 0 mm 3 m/s 760 mmHg 56%
    06:00 +18°C° 0 mm 3 m/s 760 mmHg 56%
    07:00 +19°C° 0 mm 3 m/s 761 mmHg 54%
    08:00 +20°C° 0 mm 2 m/s 761 mmHg 52%
    09:00 +21°C° 0 mm 2 m/s 761 mmHg 49%
    10:00 +21°C° 0 mm 2 m/s 761 mmHg 51%
    11:00 +23°C° 0 mm 2 m/s 760 mmHg 52%
    12:00 +23°C° 0 mm 2 m/s 760 mmHg 54%
    13:00 +21°C° 0.3 mm 2 m/s 761 mmHg 63%
    14:00 +20°C° 0.3 mm 3 m/s 761 mmHg 72%
    15:00 +19°C° 0.3 mm 3 m/s 761 mmHg 81%
    16:00 +18°C° 1.3 mm 3 m/s 762 mmHg 85%
    17:00 +18°C° 1.3 mm 3 m/s 763 mmHg 89%
    18:00 +17°C° 1.3 mm 3 m/s 763 mmHg 92%
    19:00 +17°C° 4.2 mm 4 m/s 764 mmHg 93%
    20:00 +15°C° 4.2 mm 4 m/s 765 mmHg 94%
    21:00 +15°C° 4.2 mm 5 m/s 765 mmHg 95%
    22:00 +14°C° 5.6 mm 5 m/s 766 mmHg 95%
    23:00 +14°C° 5.6 mm 6 m/s 767 mmHg 96%

    24 Noiembrie, Sâmbătă

    Timp Temperatura Precipitaţii Vânt Presiune Umiditate
    00:00 +13°C° 5.6 mm 6 m/s 767 mmHg 97%
    01:00 +13°C° 3.8 mm 6 m/s 768 mmHg 97%
    02:00 +11°C° 3.8 mm 6 m/s 769 mmHg 97%
    03:00 +11°C° 3.8 mm 6 m/s 769 mmHg 97%
    04:00 +10°C° 1.8 mm 5 m/s 770 mmHg 97%
    05:00 +11°C° 1.8 mm 4 m/s 771 mmHg 97%
    06:00 +11°C° 1.8 mm 4 m/s 772 mmHg 96%
    07:00 +11°C° 0.7 mm 3 m/s 772 mmHg 95%
    08:00 +11°C° 0.7 mm 3 m/s 772 mmHg 95%
    09:00 +11°C° 0.7 mm 3 m/s 773 mmHg 94%
    10:00 +11°C° 0.6 mm 3 m/s 772 mmHg 92%
    11:00 +13°C° 0.6 mm 2 m/s 772 mmHg 90%
    12:00 +13°C° 0.6 mm 2 m/s 772 mmHg 89%
    13:00 +13°C° 0.2 mm 2 m/s 771 mmHg 88%
    14:00 +13°C° 0.2 mm 2 m/s 771 mmHg 88%
    15:00 +13°C° 0.2 mm 2 m/s 771 mmHg 88%
    16:00 +13°C° 0 mm 2 m/s 771 mmHg 90%
    17:00 +13°C° 0 mm 2 m/s 771 mmHg 92%
    18:00 +13°C° 0 mm 2 m/s 771 mmHg 94%
    19:00 +12°C° 0 mm 2 m/s 771 mmHg 93%
    20:00 +12°C° 0 mm 2 m/s 770 mmHg 93%
    21:00 +12°C° 0 mm 1 m/s 770 mmHg 92%
    22:00 +12°C° 0 mm 1 m/s 770 mmHg 91%
    23:00 +12°C° 0 mm 1 m/s 769 mmHg 90%
    Arată mai mult